Lafayette, LA

7:35 PM CST on December 13, 2017 (GMT -0600)
Lafayette Regional

Weather History for KLFT - December, 2014

Change the Weather History Date:

Tuesday, December 9, 2014

  Actual Average Record
Temperature  
Mean Temperature 56 °F 55 °F  
Max Temperature 70 °F 65 °F 83 °F (1894)
Min Temperature 41 °F 45 °F 16 °F (1917)
Degree Days  
Heating Degree Days 9 11  
Month to date heating degree days 43 88  
Since 1 July heating degree days 344 287  
Growing Degree Days 6 (Base 50)    
Moisture  
Dew Point 42 °F    
Average Humidity 66    
Maximum Humidity 96    
Minimum Humidity 36    
Precipitation  
Precipitation 0.00 in 0.18 in 2.95 in (2004)
Month to date precipitation T 1.54  
Year to date precipitation 56.50 56.46  
Snow  
Snow 0.00 in 0.00 in 0.00 in ()
Month to date snowfall 0.0 0.0  
Since 1 July snowfall 0.0 0.0  
Snow Depth 0.00 in    
Sea Level Pressure  
Sea Level Pressure 30.27 in    
Wind  
Wind Speed 3 mph (NNW)    
Max Wind Speed 13 mph    
Max Gust Speed 17 mph    
Visibility 9 miles    
Events      
T = Trace of Precipitation, MM = Missing Value Source: NWS Daily Summary

Daily Weather History Graph

Daily Weather History Graph

Search for Another Location

Airport or City:

Trip Planner

Search our weather history database for the weather conditions in past years. The results will help you decide how hot, cold, wet, or windy it might be!

Date:

Astronomy

Dec. 09, 2014 Rise Set
Actual Time 6:52 AM CST 5:07 PM CST
Civil Twilight 6:26 AM CST 5:34 PM CST
Nautical Twilight 5:56 AM CST 6:04 PM CST
Astronomical Twilight 5:27 AM CST 6:33 PM CST
Moon 8:18 PM CST (12/9) 9:13 AM CST (12/9)
Length of Visible Light 11h 07m
Length of Day
10h 15m
Waning Gibbous, 90% of the Moon is Illuminated
Dec 9
Waning Gibbous
Dec 14
Last Quarter
Dec 21
New
Dec 28
First Quarter
Jan 4
Full

Hourly Weather History & Observations

Time (CST) Temp. Windchill Dew Point Humidity Pressure Visibility Wind Dir Wind Speed Gust Speed Precip Events Conditions
12:53 AM 44.1 °F - 43.0 °F 96% 30.28 in 5.0 mi Calm Calm - N/A   Clear
1:53 AM 44.1 °F - 39.9 °F 85% 30.28 in 8.0 mi Calm Calm - N/A   Clear
2:53 AM 43.0 °F 41.3 °F 41.0 °F 93% 30.27 in 6.0 mi NNW 3.5 mph - N/A   Clear
3:53 AM 41.0 °F - 37.9 °F 89% 30.27 in 7.0 mi Calm Calm - N/A   Clear
4:53 AM 43.0 °F - 39.9 °F 89% 30.28 in 6.0 mi Calm Calm - N/A   Clear
5:53 AM 43.0 °F - 39.0 °F 86% 30.29 in 8.0 mi Calm Calm - N/A   Clear
6:53 AM 43.0 °F 41.3 °F 39.0 °F 86% 30.30 in 7.0 mi North 3.5 mph - N/A   Clear
7:53 AM 46.9 °F - 42.1 °F 83% 30.32 in 6.0 mi North 3.5 mph - N/A   Haze
8:53 AM 51.1 °F - 44.1 °F 77% 30.32 in 7.0 mi NE 5.8 mph - N/A   Clear
9:53 AM 57.0 °F - 45.0 °F 64% 30.33 in 8.0 mi NE 5.8 mph - N/A   Clear
10:53 AM 61.0 °F - 44.1 °F 54% 30.32 in 10.0 mi Calm Calm - N/A   Clear
11:53 AM 64.0 °F - 44.1 °F 48% 30.29 in 10.0 mi WNW 5.8 mph - N/A   Clear
12:53 PM 68.0 °F - 42.1 °F 39% 30.26 in 10.0 mi NNW 9.2 mph - N/A   Clear
1:53 PM 68.0 °F - 43.0 °F 40% 30.25 in 10.0 mi NW 10.4 mph - N/A   Clear
2:53 PM 70.0 °F - 41.0 °F 35% 30.23 in 10.0 mi NW 8.1 mph - N/A   Clear
3:53 PM 68.0 °F - 41.0 °F 37% 30.22 in 10.0 mi NW 9.2 mph - N/A   Clear
4:53 PM 64.0 °F - 41.0 °F 43% 30.22 in 10.0 mi WNW 5.8 mph - N/A   Clear
5:53 PM 61.0 °F - 42.1 °F 50% 30.23 in 10.0 mi NNW 3.5 mph - N/A   Clear
6:53 PM 59.0 °F - 39.9 °F 49% 30.24 in 10.0 mi NW 4.6 mph - N/A   Clear
7:53 PM 53.1 °F - 44.1 °F 71% 30.24 in 10.0 mi Calm Calm - N/A   Clear
8:53 PM 48.9 °F - 46.0 °F 90% 30.24 in 10.0 mi Calm Calm - N/A   Clear
9:53 PM 48.9 °F - 43.0 °F 80% 30.25 in 10.0 mi Calm Calm - N/A   Clear
10:53 PM 46.9 °F - 44.1 °F 90% 30.25 in 10.0 mi Calm Calm - N/A   Clear
11:53 PM 45.0 °F - 43.0 °F 93% 30.25 in 10.0 mi Calm Calm - N/A   Clear